Starlink 32556

operational
NORAD ID: 61858 Int'l Des: 2024-202 Owner: SPXS Country: US Constellation: starlink
LEOCIRCULAR

Starlink 32556について

説明を読み込み中...

リアルタイム位置

3D地球を読み込み中...

次回通過

高度履歴

Altitude vs Time

uPlot chart will show altitude changes over time

軌道要素

1 61858U 24202P 25307.78922863 .00001054 00000-0 47807-4 0 9990
2 61858 43.0001 228.9407 0000512 275.4465 84.6329 15.27579182 56089
Epoch: Nov 3, 2025 • Age: 7 hours

現在のステータス

高度 496.0 km
速度 7.62 km/s
衛星直下点 -43.16°S, 58.41°E
打ち上げ日 Nov 7, 2024
運用期間 0.9 years
タイプ internet

技術仕様

分類 Payload
質量 730.00 kg
乾燥質量 700.00 kg
総質量 730.00 kg
長さ 0.30 m
直径 4.10 m
スパン 29.00 m
形状 Box + pan
製造者 SPXS
バスタイプ Starlink V2M
フェーズステータス In Orbit
所有者/国 SPXS/US

大規模コンステレーション

Loading constellations...